Tracking 29892 objects as of 21-Nov-2024
HD Live streaming from Space Station
objects crossing your sky now

STARLINK-6139

Track STARLINK-6139 now!
10-day predictions
STARLINK-6139 is classified as:


NORAD ID: 57109
Int'l Code: 2023-090J
Perigee: 565.3 km
Apogee: 567.1 km
Inclination: 43.0 °
Period: 95.8 minutes
Semi major axis: 6937 km
RCS: Unknown
Launch date: June 23, 2023
Source: United States (US)
Launch site: AIR FORCE EASTERN TEST RANGE (AFETR)
Your satellite tracking list
Your tracking list is empty




NASA's NSSDC Master Catalog

Two Line Element Set (TLE):
1 57109U 23090J   24325.38148776  .00000680  00000-0  65435-4 0  9997
2 57109  43.0043 332.0374 0001262 264.2262  95.8437 15.02541754 79067
Source of the keplerian elements: AFSPC